FW8627 Weather Reports


time (UTC)temp
F
wind
direction
speed
knots
gust
knots
rain 1hr
in
rain 24hr
in
rain mn
in
humidity
%
barometer
mb
20260504202020 67 235 9.6 15.6 0.00 0.00 0.00 40 1005.8
20260504201519 67 221 9.6 16.5 0.00 0.00 0.00 42 1005.9
20260504201019 66 300 9.6 16.5 0.00 0.00 0.00 41 1005.9
20260504200518 66 273 3.5 13.0 0.00 0.00 0.00 42 1006.0
20260504200021 67 244 5.2 13.0 0.00 0.00 0.00 42 1006.1
20260504195520 67 249 7.0 13.0 0.00 0.00 0.00 42 1006.1
20260504195017 66 250 7.8 14.8 0.00 0.00 0.00 44 1006.3
20260504194516 66 238 6.1 16.5 0.00 0.00 0.00 44 1006.3
20260504194015 66 201 3.5 17.4 0.00 0.00 0.00 43 1006.4
20260504193515 67 211 7.8 17.4 0.00 0.00 0.00 42 1006.2
20260504193015 67 229 5.2 18.2 0.00 0.00 0.00 43 1006.3
20260504192513 67 218 8.7 20.0 0.00 0.00 0.00 42 1006.2
20260504192013 67 219 6.1 20.0 0.00 0.00 0.00 42 1006.3
20260504191510 67 286 7.8 21.7 0.00 0.00 0.00 42 1006.2
20260504191010 67 178 10.4 21.7 0.00 0.00 0.00 43 1006.2
20260504190509 67 179 7.8 15.6 0.00 0.00 0.00 44 1006.3
20260504190007 65 233 7.8 13.0 0.00 0.00 0.00 43 1006.3
20260504185506 64 233 4.3 15.6 0.00 0.00 0.00 45 1006.5
20260504185005 65 221 5.2 15.6 0.00 0.00 0.00 44 1006.5
20260504184505 64 241 5.2 13.0 0.00 0.00 0.00 45 1006.4
20260504184005 64 296 5.2 13.9 0.00 0.00 0.00 48 1006.7
20260504183504 64 262 7.8 13.9 0.00 0.00 0.00 46 1006.6
20260504183009 64 197 6.1 13.9 0.00 0.00 0.00 45 1006.5
20260504182503 64 248 6.1 13.9 0.00 0.00 0.00 47 1006.7
20260504182002 64 201 6.1 13.0 0.00 0.00 0.00 47 1006.7
20260504181501 64 251 4.3 12.2 0.00 0.00 0.00 47 1006.8
20260504181100 63 167 2.6 12.2 0.00 0.00 0.00 49 1006.8
20260504180601 61 219 4.3 12.2 0.00 0.00 0.00 52 1006.9
20260504180101 61 340 5.2 12.2 0.00 0.00 0.00 51 1006.9
20260504175559 60 182 4.3 14.8 0.00 0.00 0.00 51 1007.0
20260504175100 60 244 5.2 17.4 0.00 0.00 0.00 50 1007.0
20260504174602 60 202 5.2 17.4 0.00 0.00 0.00 50 1007.1
20260504174059 60 264 8.7 17.4 0.00 0.00 0.00 49 1007.1
20260504173603 60 257 3.5 13.9 0.00 0.00 0.00 50 1007.1
20260504173100 61 288 3.5 13.9 0.00 0.00 0.00 49 1007.1
20260504172558 61 290 4.3 13.0 0.00 0.00 0.00 50 1007.1
20260504172058 61 225 6.1 17.4 0.00 0.00 0.00 48 1007.0
20260504171558 61 267 7.8 17.4 0.00 0.00 0.00 49 1007.0
20260504171058 61 265 2.6 12.2 0.00 0.00 0.00 48 1007.0
20260504170558 61 261 3.5 12.2 0.00 0.00 0.00 48 1007.0
20260504151052 62 244 7.0 15.6 0.00 0.00 0.00 46 1007.3
20260504150548 61 189 8.7 19.1 0.00 0.00 0.00 47 1007.3
20260504141038 57 211 7.0 13.9 0.00 0.00 0.00 53 1007.7
20260504140537 57 186 7.0 15.6 0.00 0.00 0.00 54 1007.8
20260504130525 51 221 1.7 7.8 0.00 0.00 0.00 69 1008.8
20260504110502 41 219 0.0 1.7 0.00 0.00 0.00 82 1009.9
20260504100554 40 219 0.0 1.7 0.00 0.00 0.00 77 1009.4
20260504081544 40 219 0.0 0.9 0.00 0.00 0.00 68 1009.5
20260504081044 40 219 0.0 0.9 0.00 0.00 0.00 67 1009.5
20260504080543 40 219 0.0 0.9 0.00 0.00 0.00 67 1009.6
20260504050526 38 240 1.7 3.5 0.00 0.00 0.00 69 1009.5
20260504045524 38 223 2.6 5.2 0.00 0.00 0.00 69 1009.4
20260504045023 38 228 1.7 4.3 0.00 0.00 0.00 68 1009.4
20260504044523 38 227 1.7 3.5 0.00 0.00 0.00 68 1009.5
20260504044021 38 234 1.7 3.5 0.00 0.00 0.00 68 1009.5
20260504043521 38 234 1.7 4.3 0.00 0.00 0.00 67 1009.5
20260504043027 38 242 1.7 4.3 0.00 0.00 0.00 67 1009.4
20260504042518 39 238 1.7 4.3 0.00 0.00 0.00 66 1009.4
20260504042017 39 236 1.7 6.1 0.00 0.00 0.00 65 1009.3
20260504041530 39 246 1.7 6.1 0.00 0.00 0.00 65 1009.3
20260504041015 40 237 2.6 6.1 0.00 0.00 0.00 63 1009.3
20260504040514 40 213 2.6 5.2 0.00 0.00 0.00 62 1009.3
20260504040013 40 259 1.7 5.2 0.00 0.00 0.00 62 1009.2
20260504035513 40 213 0.9 2.6 0.00 0.01 0.00 63 1009.2
20260504035014 39 267 0.9 2.6 0.00 0.01 0.00 64 1009.2
20260504034517 40 267 0.9 2.6 0.00 0.01 0.00 64 1009.3
20260504034012 40 267 0.0 2.6 0.00 0.01 0.00 63 1009.2
20260504033511 40 267 0.0 3.5 0.00 0.01 0.00 64 1009.2
20260504033014 40 267 1.7 3.5 0.00 0.01 0.00 63 1009.3
20260504032511 40 231 0.9 3.5 0.00 0.01 0.00 64 1009.3
20260504032011 40 227 1.7 3.5 0.00 0.01 0.00 64 1009.2
20260504031629 40 257 0.9 3.5 0.00 0.01 0.00 64 1009.2
20260504031011 40 257 1.7 3.5 0.00 0.01 0.00 64 1009.2
20260504030510 40 257 0.9 3.5 0.00 0.01 0.00 64 1009.3
20260504030010 40 257 0.9 3.5 0.00 0.01 0.00 64 1009.3
20260504025510 40 257 0.9 3.5 0.00 0.08 0.00 64 1009.3
20260504025010 40 223 1.7 3.5 0.00 0.08 0.00 63 1009.4
20260504024510 41 252 1.7 3.5 0.00 0.08 0.00 63 1009.3
20260504024010 41 214 1.7 3.5 0.00 0.08 0.00 62 1009.3
20260504023509 41 205 1.7 4.3 0.00 0.08 0.00 62 1009.4
20260504023009 41 209 0.9 4.3 0.00 0.08 0.00 61 1009.4
20260504022508 41 252 1.7 5.2 0.00 0.08 0.00 62 1009.4
20260504022009 41 248 1.7 5.2 0.00 0.08 0.00 62 1009.4
20260504021508 41 240 0.9 3.5 0.00 0.08 0.00 62 1009.4
20260504021008 41 240 0.9 3.5 0.00 0.08 0.00 62 1009.4
20260504020611 41 240 1.7 3.5 0.00 0.08 0.00 62 1009.4
20260504020015 41 240 1.7 3.5 0.00 0.09 0.00 61 1009.4
20260504015508 42 255 1.7 2.6 0.00 0.09 0.00 61 1009.3
20260504015010 41 252 1.7 3.5 0.00 0.09 0.00 61 1009.3
20260504014513 41 252 1.7 4.3 0.00 0.09 0.00 62 1009.2
20260504014006 41 252 1.7 4.3 0.00 0.09 0.00 62 1009.3
20260504013506 41 252 1.7 6.1 0.00 0.09 0.00 62 1009.4
20260504013006 41 247 2.6 6.1 0.00 0.09 0.00 61 1009.3
20260504012506 41 229 1.7 7.0 0.00 0.09 0.00 62 1009.3
20260504012006 41 269 2.6 7.0 0.00 0.09 0.00 62 1009.2
20260504011506 41 238 1.7 6.1 0.00 0.09 0.00 62 1009.2
20260504011006 42 252 2.6 6.1 0.00 0.09 0.00 62 1009.2
20260504010508 42 234 2.6 7.0 0.00 0.09 0.00 62 1009.1
20260504010006 42 225 2.6 5.2 0.00 0.10 0.00 63 1009.0
20260504005505 42 257 2.6 6.1 0.00 0.10 0.00 63 1009.0
20260504005005 42 257 0.9 6.1 0.00 0.10 0.00 63 1009.0
20260504004516 42 232 1.7 7.8 0.00 0.10 0.00 62 1008.9
20260504004004 42 218 2.6 7.8 0.00 0.10 0.00 62 1008.9
20260504003504 42 229 1.7 6.1 0.00 0.10 0.00 61 1008.8
20260504003004 43 243 2.6 7.8 0.00 0.10 0.00 61 1008.8
20260504002504 43 255 2.6 7.8 0.00 0.10 0.00 60 1008.7
20260504002004 43 214 2.6 7.8 0.00 0.10 0.00 59 1008.7
20260504001504 43 204 2.6 7.8 0.00 0.10 0.00 59 1008.5
20260504001004 44 208 2.6 7.8 0.00 0.10 0.00 59 1008.5
20260504000505 44 234 1.7 7.8 0.00 0.10 0.00 59 1008.4
20260504000105 44 289 2.6 7.8 0.00 0.10 0.00 59 1008.4
20260503235502 44 259 0.9 9.6 0.00 0.10 0.00 58 1008.3
20260503235003 44 245 2.6 11.3 0.00 0.10 0.00 58 1008.3
20260503234503 44 307 1.7 11.3 0.00 0.10 0.00 58 1008.2
20260503234003 44 26 0.9 7.8 0.00 0.10 0.00 57 1008.2
20260503233502 45 254 2.6 8.7 0.00 0.10 0.00 56 1008.1
20260503233005 45 209 1.7 8.7 0.00 0.10 0.00 56 1008.1
20260503232502 45 327 4.3 13.0 0.00 0.10 0.00 55 1008.1
20260503232003 45 307 1.7 12.2 0.00 0.10 0.00 56 1008.2
20260503231502 45 115 3.5 8.7 0.00 0.10 0.00 57 1008.1
20260503231003 45 355 0.9 6.1 0.00 0.10 0.00 57 1008.1
20260503230501 45 323 1.7 5.2 0.00 0.10 0.00 58 1008.1
20260503230002 45 22 1.7 9.6 0.00 0.11 0.00 58 1008.1
20260503225503 45 292 4.3 9.6 0.00 0.11 0.00 56 1008.1
20260503225001 45 269 2.6 7.8 0.00 0.11 0.00 57 1008.0
20260503224502 45 5 2.6 8.7 0.00 0.11 0.00 57 1008.1
20260503224102 46 27 1.7 8.7 0.00 0.11 0.00 58 1008.0
20260503223600 46 296 2.6 7.8 0.00 0.11 0.00 57 1008.0
20260503223102 46 294 0.9 11.3 0.00 0.11 0.00 58 1008.0
20260503222559 46 69 2.6 11.3 0.00 0.11 0.00 56 1008.0
20260503222059 46 17 2.6 6.1 0.00 0.11 0.00 58 1007.9
20260503221601 46 235 1.7 7.8 0.00 0.11 0.00 59 1007.8
20260503221059 46 240 0.9 7.8 0.00 0.11 0.00 58 1007.8
20260503220600 46 11 1.7 7.0 0.00 0.11 0.00 58 1007.8
20260503220059 46 32 2.6 7.0 0.00 0.11 0.00 58 1007.8
20260503215558 46 27 1.7 7.0 0.00 0.14 0.00 57 1007.6
20260503215058 46 64 1.7 7.0 0.00 0.14 0.00 57 1007.7
20260503214558 46 355 1.7 7.8 0.00 0.14 0.00 56 1007.6
20260503214058 47 61 2.6 13.0 0.00 0.14 0.00 58 1007.6
20260503213557 46 350 2.6 13.0 0.00 0.14 0.00 56 1007.6
20260503213058 46 13 3.5 12.2 0.00 0.14 0.00 54 1007.6
20260503212557 46 294 3.5 12.2 0.00 0.14 0.00 57 1007.6
20260503212058 46 11 2.6 11.3 0.00 0.14 0.00 55 1007.6
20260503211559 47 32 4.3 11.3 0.00 0.14 0.00 55 1007.8
20260503211057 46 20 2.6 11.3 0.00 0.14 0.00 56 1007.6
20260503210556 46 46 2.6 7.8 0.00 0.14 0.00 56 1007.5
20260503210057 46 63 1.7 7.0 0.00 0.14 0.00 56 1007.4
20260503205559 46 346 0.9 8.7 0.00 0.14 0.00 55 1007.4
20260503205055 46 333 3.5 17.4 0.00 0.14 0.00 54 1007.4
20260503204557 47 272 7.0 17.4 0.00 0.14 0.00 53 1007.3
20260503204055 47 58 2.6 7.8 0.00 0.14 0.00 55 1007.4
20260503203555 46 11 1.7 8.7 0.00 0.14 0.00 55 1007.3
20260503203057 47 86 3.5 10.4 0.00 0.14 0.00 54 1007.4
20260503202553 47 53 4.3 12.2 0.00 0.14 0.00 56 1007.2